Time,TemperatureF,DewpointF,PressureIn,WindDirection,WindDirectionDegrees,WindSpeedMPH,WindSpeedGustMPH,Humidity,HourlyPrecipIn,Conditions,Clouds,dailyrainin,SoftwareType,DateUTC
2013-03-17 00:00:00,22.6,1.9,29.91,NNW,338,0.0,4.0,40,-99.99,,,0.00,meteohub,2013-03-17 04:00:00,
2013-03-17 00:05:00,22.6,1.9,29.91,NNW,338,0.0,4.0,40,-99.99,,,0.00,meteohub,2013-03-17 04:05:00,
2013-03-17 00:10:00,22.8,2.1,29.91,NNW,338,0.0,0.0,40,-99.99,,,0.00,meteohub,2013-03-17 04:10:00,
2013-03-17 00:15:00,22.8,2.1,29.91,NNW,338,0.0,0.0,40,-99.99,,,0.00,meteohub,2013-03-17 04:15:00,
2013-03-17 00:20:00,22.8,2.1,29.91,NNW,338,0.0,0.0,40,-99.99,,,0.00,meteohub,2013-03-17 04:20:00,
2013-03-17 00:25:00,22.8,2.1,29.91,NNW,338,0.0,0.0,40,-99.99,,,0.00,meteohub,2013-03-17 04:25:00,
2013-03-17 00:30:00,22.8,2.1,29.91,NNW,338,0.0,0.0,40,-99.99,,,0.00,meteohub,2013-03-17 04:30:00,
2013-03-17 00:35:00,22.8,2.7,29.91,NNW,338,0.0,0.0,41,-99.99,,,0.00,meteohub,2013-03-17 04:35:00,
2013-03-17 00:40:00,22.8,2.7,29.91,NNW,338,0.0,0.0,41,-99.99,,,0.00,meteohub,2013-03-17 04:40:00,
2013-03-17 00:45:00,22.8,2.7,29.91,NNW,338,0.0,0.0,41,-99.99,,,0.00,meteohub,2013-03-17 04:45:00,
2013-03-17 00:50:00,22.8,2.7,29.91,NNW,338,0.0,0.0,41,-99.99,,,0.00,meteohub,2013-03-17 04:50:00,
2013-03-17 00:55:00,22.8,2.7,29.91,NNW,338,0.0,0.0,41,-99.99,,,0.00,meteohub,2013-03-17 04:55:00,
2013-03-17 01:00:00,22.8,2.7,29.91,NNW,338,0.0,0.0,41,-99.99,,,0.00,meteohub,2013-03-17 05:00:00,
2013-03-17 01:05:00,23.0,2.8,29.91,NNW,338,0.0,0.0,41,-99.99,,,0.00,meteohub,2013-03-17 05:05:00,
2013-03-17 01:10:00,23.0,2.8,29.91,NNW,338,0.0,0.0,41,-99.99,,,0.00,meteohub,2013-03-17 05:10:00,
2013-03-17 01:15:00,23.0,2.8,29.91,NNW,338,0.0,0.0,41,-99.99,,,0.00,meteohub,2013-03-17 05:15:00,
2013-03-17 01:20:00,23.0,2.8,29.91,NNW,338,0.0,0.0,41,-99.99,,,0.00,meteohub,2013-03-17 05:20:00,
2013-03-17 01:25:00,23.2,3.0,29.91,NNW,338,0.0,0.0,41,-99.99,,,0.00,meteohub,2013-03-17 05:25:00,
2013-03-17 01:30:00,23.2,3.0,29.91,NNW,338,0.0,0.0,41,-99.99,,,0.00,meteohub,2013-03-17 05:30:00,
2013-03-17 01:35:00,23.0,2.8,29.91,NNW,338,0.0,0.0,41,-99.99,,,0.00,meteohub,2013-03-17 05:35:00,
2013-03-17 01:40:00,23.0,2.8,29.91,NNW,338,0.0,0.0,41,-99.99,,,0.00,meteohub,2013-03-17 05:40:00,
2013-03-17 01:45:00,22.8,2.7,29.91,NNW,338,0.0,0.0,41,-99.99,,,0.00,meteohub,2013-03-17 05:45:00,
2013-03-17 01:50:00,23.0,2.8,29.91,NNW,338,0.0,0.0,41,-99.99,,,0.00,meteohub,2013-03-17 05:50:00,
2013-03-17 01:55:00,23.0,3.4,29.91,NNW,338,0.0,0.0,42,-99.99,,,0.00,meteohub,2013-03-17 05:55:00,
2013-03-17 02:00:00,23.0,3.4,29.91,NNW,338,0.0,0.0,42,-99.99,,,0.00,meteohub,2013-03-17 06:00:00,
2013-03-17 02:05:00,23.0,3.4,29.91,NNW,338,0.0,0.0,42,-99.99,,,0.00,meteohub,2013-03-17 06:05:00,
2013-03-17 02:10:00,23.0,3.4,29.91,NNW,338,0.0,0.0,42,-99.99,,,0.00,meteohub,2013-03-17 06:10:00,
2013-03-17 02:15:00,23.0,3.4,29.91,NNW,338,0.0,0.0,42,-99.99,,,0.00,meteohub,2013-03-17 06:15:00,
2013-03-17 02:20:00,22.8,3.2,29.91,NNW,338,0.0,0.0,42,-99.99,,,0.00,meteohub,2013-03-17 06:20:00,
2013-03-17 02:25:00,22.8,3.2,29.91,NNW,338,0.0,0.0,42,-99.99,,,0.00,meteohub,2013-03-17 06:25:00,
2013-03-17 02:30:00,22.8,3.2,29.91,NNW,338,0.0,0.0,42,-99.99,,,0.00,meteohub,2013-03-17 06:30:00,
2013-03-17 02:35:00,22.8,3.2,29.91,NNW,338,0.0,0.0,42,-99.99,,,0.00,meteohub,2013-03-17 06:35:00,
2013-03-17 02:40:00,22.8,3.2,29.91,NNW,338,0.0,0.0,42,-99.99,,,0.00,meteohub,2013-03-17 06:40:00,
2013-03-17 02:45:00,22.8,3.2,29.91,NNW,338,0.0,0.0,42,-99.99,,,0.00,meteohub,2013-03-17 06:45:00,
2013-03-17 02:50:00,22.8,3.2,29.91,NNW,338,0.0,0.0,42,-99.99,,,0.00,meteohub,2013-03-17 06:50:00,
2013-03-17 02:55:00,22.8,3.2,29.91,NNW,338,0.0,0.0,42,-99.99,,,0.00,meteohub,2013-03-17 06:55:00,
2013-03-17 03:00:00,22.8,3.2,29.91,NNW,338,0.0,0.0,42,-99.99,,,0.00,meteohub,2013-03-17 07:00:00,
2013-03-17 03:05:00,22.8,3.2,29.91,NNW,338,0.0,0.0,42,-99.99,,,0.00,meteohub,2013-03-17 07:05:00,
2013-03-17 03:10:00,22.8,3.2,29.91,NNW,338,0.0,0.0,42,-99.99,,,0.00,meteohub,2013-03-17 07:10:00,
2013-03-17 03:15:00,22.8,3.2,29.91,NNW,338,0.0,0.0,42,-99.99,,,0.00,meteohub,2013-03-17 07:15:00,
2013-03-17 03:20:00,22.6,3.0,29.91,NNW,338,0.0,0.0,42,-99.99,,,0.00,meteohub,2013-03-17 07:20:00,
2013-03-17 03:25:00,22.5,3.4,29.91,NNW,338,0.0,0.0,43,-99.99,,,0.00,meteohub,2013-03-17 07:25:00,
2013-03-17 03:30:00,22.5,3.4,29.91,NNW,338,0.0,0.0,43,-99.99,,,0.00,meteohub,2013-03-17 07:30:00,
2013-03-17 03:35:00,22.5,3.4,29.91,NNW,338,0.0,0.0,43,-99.99,,,0.00,meteohub,2013-03-17 07:35:00,
2013-03-17 03:40:00,22.5,3.4,29.91,NNW,338,0.0,0.0,43,-99.99,,,0.00,meteohub,2013-03-17 07:40:00,
2013-03-17 03:45:00,22.5,3.4,29.91,NNW,338,0.0,0.0,43,-99.99,,,0.00,meteohub,2013-03-17 07:45:00,
2013-03-17 03:50:00,22.3,3.2,29.91,NNW,338,0.0,0.0,43,-99.99,,,0.00,meteohub,2013-03-17 07:50:00,
2013-03-17 03:55:00,22.1,3.0,29.94,NNW,338,0.0,0.0,43,-99.99,,,0.00,meteohub,2013-03-17 07:55:00,
2013-03-17 04:00:00,22.1,3.0,29.94,NNW,338,0.0,0.0,43,-99.99,,,0.00,meteohub,2013-03-17 08:00:00,
2013-03-17 04:05:00,21.9,2.8,29.94,NNW,338,0.0,0.0,43,-99.99,,,0.00,meteohub,2013-03-17 08:05:00,
2013-03-17 04:10:00,21.7,2.7,29.94,NNW,338,0.0,0.0,43,0.00,,,0.00,meteohub,2013-03-17 08:10:00,
2013-03-17 04:15:00,21.6,2.5,29.94,NNW,338,0.0,0.0,43,0.00,,,0.00,meteohub,2013-03-17 08:15:00,
2013-03-17 04:20:00,21.4,2.3,29.94,NNW,338,0.0,0.0,43,0.00,,,0.00,meteohub,2013-03-17 08:20:00,
2013-03-17 04:25:00,21.2,2.1,29.94,NNW,338,0.0,0.0,43,0.00,,,0.00,meteohub,2013-03-17 08:25:00,
2013-03-17 04:30:00,21.2,2.1,29.94,NNW,338,0.0,0.0,43,0.00,,,0.00,meteohub,2013-03-17 08:30:00,
2013-03-17 04:35:00,21.0,1.9,29.94,NNW,338,0.0,0.0,43,0.00,,,0.00,meteohub,2013-03-17 08:35:00,
2013-03-17 04:40:00,20.5,1.6,29.94,NNW,338,0.0,0.0,43,0.00,,,0.00,meteohub,2013-03-17 08:40:00,
2013-03-17 04:45:00,20.3,1.4,29.94,NNW,338,0.0,0.0,43,0.00,,,0.00,meteohub,2013-03-17 08:45:00,
2013-03-17 04:50:00,19.9,1.0,29.94,NNW,338,0.0,0.0,43,0.00,,,0.00,meteohub,2013-03-17 08:50:00,
2013-03-17 04:55:00,19.4,1.0,29.94,NNW,338,0.0,0.0,44,0.00,,,0.00,meteohub,2013-03-17 08:55:00,
2013-03-17 05:00:00,19.6,1.2,29.94,NNW,338,0.0,0.0,44,0.00,,,0.00,meteohub,2013-03-17 09:00:00,
2013-03-17 05:05:00,19.8,1.4,29.94,NNW,338,0.0,4.0,44,0.00,,,0.00,meteohub,2013-03-17 09:05:00,
2013-03-17 05:10:00,19.8,1.4,29.94,NNW,338,0.0,4.0,44,0.00,,,0.00,meteohub,2013-03-17 09:10:00,
2013-03-17 05:15:00,19.6,1.2,29.94,NNW,338,0.0,3.0,44,0.00,,,0.00,meteohub,2013-03-17 09:15:00,
2013-03-17 05:20:00,19.4,1.0,29.94,NNW,338,0.0,4.0,44,0.00,,,0.00,meteohub,2013-03-17 09:20:00,
2013-03-17 05:25:00,19.2,0.9,29.94,NNW,338,0.0,4.0,44,0.00,,,0.00,meteohub,2013-03-17 09:25:00,
2013-03-17 05:30:00,19.2,0.9,29.94,NNW,338,2.0,4.0,44,0.00,,,0.00,meteohub,2013-03-17 09:30:00,
2013-03-17 05:35:00,19.2,0.9,29.94,NNW,338,0.0,5.0,44,0.00,,,0.00,meteohub,2013-03-17 09:35:00,
2013-03-17 05:40:00,19.0,0.7,29.94,NNW,338,0.0,5.0,44,0.00,,,0.00,meteohub,2013-03-17 09:40:00,
2013-03-17 05:45:00,19.0,0.7,29.94,NNW,338,0.0,5.0,44,0.00,,,0.00,meteohub,2013-03-17 09:45:00,
2013-03-17 05:50:00,18.7,0.3,29.94,NNW,338,2.0,5.0,44,0.00,,,0.00,meteohub,2013-03-17 09:50:00,
2013-03-17 05:55:00,18.5,0.1,29.94,NNW,338,0.0,4.0,44,0.00,,,0.00,meteohub,2013-03-17 09:55:00,
2013-03-17 06:00:00,18.3,0.1,29.94,NNW,338,0.0,4.0,44,0.00,,,0.00,meteohub,2013-03-17 10:00:00,
2013-03-17 06:05:00,18.3,0.1,29.94,NNW,338,0.0,4.0,44,0.00,,,0.00,meteohub,2013-03-17 10:05:00,
2013-03-17 06:10:00,18.1,0.0,29.97,NNW,338,0.0,4.0,44,0.00,,,0.00,meteohub,2013-03-17 10:10:00,
2013-03-17 06:15:00,18.1,0.0,29.97,NNW,338,0.0,0.0,44,0.00,,,0.00,meteohub,2013-03-17 10:15:00,
2013-03-17 06:21:00,18.0,-0.2,29.97,NNW,338,0.0,0.0,44,0.00,,,0.00,meteohub,2013-03-17 10:21:00,
2013-03-17 06:26:00,17.8,-0.4,29.94,NNW,338,0.0,0.0,44,0.00,,,0.00,meteohub,2013-03-17 10:26:00,
2013-03-17 06:31:00,17.8,-0.4,29.94,NNW,338,0.0,0.0,44,0.00,,,0.00,meteohub,2013-03-17 10:31:00,
2013-03-17 06:36:00,17.8,-0.4,29.94,NNW,338,0.0,0.0,44,0.00,,,0.00,meteohub,2013-03-17 10:36:00,
2013-03-17 06:41:00,17.6,-0.6,29.94,NNW,338,0.0,0.0,44,0.00,,,0.00,meteohub,2013-03-17 10:41:00,
2013-03-17 06:46:00,17.4,-0.8,29.94,NNW,338,0.0,0.0,44,0.00,,,0.00,meteohub,2013-03-17 10:46:00,
2013-03-17 06:51:00,17.4,-0.8,29.94,NNW,338,0.0,0.0,44,0.00,,,0.00,meteohub,2013-03-17 10:51:00,
2013-03-17 06:56:00,17.2,-0.9,29.97,NNW,338,0.0,0.0,44,0.00,,,0.00,meteohub,2013-03-17 10:56:00,
2013-03-17 07:01:00,17.1,-0.6,29.97,NNW,338,0.0,0.0,45,0.00,,,0.00,meteohub,2013-03-17 11:01:00,
2013-03-17 07:06:00,17.2,-0.4,29.97,NNW,338,0.0,0.0,45,0.00,,,0.00,meteohub,2013-03-17 11:06:00,
2013-03-17 07:11:00,17.2,-0.4,29.97,NNW,338,0.0,0.0,45,0.00,,,0.00,meteohub,2013-03-17 11:11:00,
2013-03-17 07:16:00,17.2,-0.4,29.97,NNW,338,0.0,0.0,45,0.00,,,0.00,meteohub,2013-03-17 11:16:00,
2013-03-17 07:21:00,17.2,-0.4,29.97,NNW,338,4.0,0.0,45,0.00,,,0.00,meteohub,2013-03-17 11:21:00,
2013-03-17 07:26:00,17.4,-0.2,29.97,NW,318,3.0,4.0,45,0.00,,,0.00,meteohub,2013-03-17 11:26:00,
2013-03-17 07:31:00,18.1,0.3,29.97,NNW,341,5.0,5.0,45,0.00,,,0.00,meteohub,2013-03-17 11:31:00,
2013-03-17 07:32:00,18.3,0.5,29.97,NW,320,4.0,4.0,45,0.00,,,0.00,meteohub,2013-03-17 11:32:00,
2013-03-17 07:37:00,19.2,1.4,30.00,NW,315,0.0,6.0,45,0.00,,,0.00,meteohub,2013-03-17 11:37:00,
2013-03-17 07:47:00,20.5,1.9,30.00,NNW,338,0.0,5.0,44,0.00,,,0.00,meteohub,2013-03-17 11:47:00,
2013-03-17 07:52:00,20.8,2.3,29.97,WSW,241,0.0,5.0,44,0.00,,,0.00,meteohub,2013-03-17 11:52:00,
2013-03-17 07:57:00,21.6,3.0,29.97,WNW,290,0.0,0.0,44,0.00,,,0.00,meteohub,2013-03-17 11:57:00,
2013-03-17 08:02:00,22.1,3.6,29.97,WNW,290,0.0,0.0,44,0.00,,,0.00,meteohub,2013-03-17 12:02:00,
2013-03-17 08:07:00,22.6,3.9,30.00,WNW,288,0.0,0.0,44,0.00,,,0.00,meteohub,2013-03-17 12:07:00,
2013-03-17 08:12:00,22.5,3.9,30.00,ESE,117,0.0,0.0,44,0.00,,,0.00,meteohub,2013-03-17 12:12:00,
2013-03-17 08:17:00,23.5,4.3,30.00,South,172,0.0,4.0,43,0.00,,,0.00,meteohub,2013-03-17 12:17:00,
2013-03-17 08:22:00,24.1,4.8,30.00,NNE,19,0.0,4.0,43,0.00,,,0.00,meteohub,2013-03-17 12:22:00,
2013-03-17 08:27:00,24.4,5.2,30.00,ESE,106,0.0,4.0,43,0.00,,,0.00,meteohub,2013-03-17 12:27:00,
2013-03-17 08:32:00,24.4,5.2,30.00,ESE,106,0.0,4.0,43,0.00,,,0.00,meteohub,2013-03-17 12:32:00,
2013-03-17 08:37:00,23.5,3.7,30.00,NNW,340,0.0,0.0,42,0.00,,,0.00,meteohub,2013-03-17 12:37:00,
2013-03-17 08:42:00,24.1,4.3,30.00,North,353,0.0,0.0,42,0.00,,,0.00,meteohub,2013-03-17 12:42:00,
2013-03-17 08:47:00,23.9,4.1,30.00,NNW,338,0.0,6.0,42,0.00,,,0.00,meteohub,2013-03-17 12:47:00,
2013-03-17 08:52:00,23.5,3.7,30.00,WNW,297,0.0,6.0,42,0.00,,,0.00,meteohub,2013-03-17 12:52:00,
2013-03-17 08:57:00,24.3,4.5,30.00,NNW,338,4.0,6.0,42,0.00,,,0.00,meteohub,2013-03-17 12:57:00,
2013-03-17 09:02:00,25.0,4.6,30.00,NW,304,0.0,6.0,41,0.00,,,0.00,meteohub,2013-03-17 13:02:00,
2013-03-17 09:07:00,25.0,4.6,30.00,North,6,3.0,8.0,41,0.00,,,0.00,meteohub,2013-03-17 13:07:00,
2013-03-17 09:12:00,25.0,4.1,30.00,NNW,337,8.0,8.0,40,0.00,,,0.00,meteohub,2013-03-17 13:12:00,
2013-03-17 09:17:00,25.7,4.6,30.00,NNE,19,0.0,8.0,40,0.00,,,0.00,meteohub,2013-03-17 13:17:00,
2013-03-17 09:22:00,25.5,3.4,30.00,NNW,348,6.0,10.0,38,0.00,,,0.00,meteohub,2013-03-17 13:22:00,
2013-03-17 09:27:00,26.2,4.1,30.00,NW,320,6.0,10.0,38,0.00,,,0.00,meteohub,2013-03-17 13:27:00,
2013-03-17 09:32:00,26.4,4.3,30.00,NNW,345,15.0,15.0,38,0.00,,,0.00,meteohub,2013-03-17 13:32:00,
2013-03-17 09:37:00,26.6,3.7,30.00,NW,324,6.0,15.0,37,0.00,,,0.00,meteohub,2013-03-17 13:37:00,
2013-03-17 09:43:00,26.8,3.4,30.00,NW,323,11.0,15.0,36,0.00,,,0.00,meteohub,2013-03-17 13:43:00,
2013-03-17 09:48:00,26.2,2.8,30.00,NNW,346,7.0,18.0,36,0.00,,,0.00,meteohub,2013-03-17 13:48:00,
2013-03-17 09:53:00,26.4,3.0,30.00,NNW,344,8.0,18.0,36,0.00,,,0.00,meteohub,2013-03-17 13:53:00,
2013-03-17 09:58:00,26.6,3.2,30.00,NNW,333,7.0,18.0,36,0.00,,,0.00,meteohub,2013-03-17 13:58:00,
2013-03-17 10:03:00,27.0,3.0,30.00,NW,307,0.0,15.0,35,0.00,,,0.00,meteohub,2013-03-17 14:03:00,
2013-03-17 10:08:00,27.1,3.0,30.03,NNW,327,8.0,15.0,35,0.00,,,0.00,meteohub,2013-03-17 14:08:00,
2013-03-17 10:13:00,27.0,3.0,30.03,WNW,282,4.0,15.0,35,0.00,,,0.00,meteohub,2013-03-17 14:13:00,
2013-03-17 10:18:00,27.0,3.0,30.03,WSW,254,3.0,15.0,35,0.00,,,0.00,meteohub,2013-03-17 14:18:00,
2013-03-17 10:23:00,26.8,2.8,30.03,NW,308,3.0,15.0,35,0.00,,,0.00,meteohub,2013-03-17 14:23:00,
2013-03-17 10:28:00,26.8,2.1,30.03,WNW,296,4.0,11.0,34,0.00,,,0.00,meteohub,2013-03-17 14:28:00,
2013-03-17 10:33:00,27.1,2.5,30.03,NW,306,5.0,10.0,34,0.00,,,0.00,meteohub,2013-03-17 14:33:00,
2013-03-17 10:38:00,27.3,2.7,30.03,North,353,7.0,10.0,34,0.00,,,0.00,meteohub,2013-03-17 14:38:00,
2013-03-17 10:43:00,27.9,3.2,30.03,North,357,4.0,10.0,34,0.00,,,0.00,meteohub,2013-03-17 14:43:00,
2013-03-17 10:48:00,27.9,3.2,30.03,NNW,332,11.0,11.0,34,0.00,,,0.00,meteohub,2013-03-17 14:48:00,
2013-03-17 10:53:00,27.9,2.5,30.03,NW,324,8.0,15.0,33,0.00,,,0.00,meteohub,2013-03-17 14:53:00,
2013-03-17 10:58:00,27.9,2.5,30.03,NW,323,8.0,15.0,33,0.00,,,0.00,meteohub,2013-03-17 14:58:00,
2013-03-17 11:03:00,28.4,3.0,30.03,WSW,248,8.0,15.0,33,0.00,,,0.00,meteohub,2013-03-17 15:03:00,
2013-03-17 11:08:00,28.4,2.3,30.03,NNW,339,4.0,15.0,32,0.00,,,0.00,meteohub,2013-03-17 15:08:00,
2013-03-17 11:13:00,28.0,1.9,30.03,NW,319,3.0,15.0,32,0.00,,,0.00,meteohub,2013-03-17 15:13:00,
2013-03-17 11:18:00,27.7,1.6,30.03,NW,317,17.0,17.0,32,0.00,,,0.00,meteohub,2013-03-17 15:18:00,
2013-03-17 11:23:00,27.0,1.0,30.03,NNW,340,13.0,17.0,32,0.00,,,0.00,meteohub,2013-03-17 15:23:00,
2013-03-17 11:28:00,27.3,1.4,30.03,West,259,4.0,17.0,32,0.00,,,0.00,meteohub,2013-03-17 15:28:00,
2013-03-17 11:33:00,27.9,1.8,30.03,North,350,3.0,17.0,32,0.00,,,0.00,meteohub,2013-03-17 15:33:00,
2013-03-17 11:38:00,28.0,1.9,30.06,NNW,331,8.0,15.0,32,0.00,,,0.00,meteohub,2013-03-17 15:38:00,
2013-03-17 11:43:00,27.3,1.4,30.06,NNW,329,8.0,15.0,32,0.00,,,0.00,meteohub,2013-03-17 15:43:00,
2013-03-17 11:48:00,27.0,1.0,30.06,NNW,341,6.0,15.0,32,0.00,,,0.00,meteohub,2013-03-17 15:48:00,
2013-03-17 11:53:00,27.1,1.2,30.06,NNW,331,8.0,15.0,32,0.00,,,0.00,meteohub,2013-03-17 15:53:00,
2013-03-17 11:58:00,27.5,1.6,30.06,NW,311,9.0,15.0,32,0.00,,,0.00,meteohub,2013-03-17 15:58:00,
2013-03-17 12:03:00,27.9,1.8,30.06,WNW,299,6.0,13.0,32,0.00,,,0.00,meteohub,2013-03-17 16:03:00,
2013-03-17 12:08:00,27.7,1.0,30.06,NNW,335,11.0,13.0,31,0.00,,,0.00,meteohub,2013-03-17 16:08:00,
2013-03-17 12:14:00,27.3,0.7,30.06,NNW,331,10.0,18.0,31,0.00,,,0.00,meteohub,2013-03-17 16:14:00,
2013-03-17 12:19:00,27.9,1.2,30.06,WNW,297,8.0,25.0,31,0.00,,,0.00,meteohub,2013-03-17 16:19:00,
2013-03-17 12:24:00,28.2,1.4,30.06,WNW,290,6.0,25.0,31,0.00,,,0.00,meteohub,2013-03-17 16:24:00,
2013-03-17 12:29:00,27.9,-1.1,30.06,NW,320,13.0,25.0,28,0.00,,,0.00,meteohub,2013-03-17 16:29:00,
2013-03-17 12:34:00,28.6,-0.4,30.06,NNW,342,12.0,20.0,28,0.00,,,0.00,meteohub,2013-03-17 16:34:00,
2013-03-17 12:39:00,29.1,0.1,30.06,North,353,5.0,20.0,28,0.00,,,0.00,meteohub,2013-03-17 16:39:00,
2013-03-17 12:44:00,30.2,1.0,30.06,NW,326,17.0,20.0,28,0.00,,,0.00,meteohub,2013-03-17 16:44:00,
2013-03-17 12:49:00,29.5,0.3,30.06,NNW,327,9.0,18.0,28,0.00,,,0.00,meteohub,2013-03-17 16:49:00,
2013-03-17 12:54:00,28.9,0.0,30.06,WNW,302,11.0,18.0,28,0.00,,,0.00,meteohub,2013-03-17 16:54:00,
2013-03-17 12:59:00,30.6,2.8,30.06,West,262,5.0,18.0,30,0.00,,,0.00,meteohub,2013-03-17 16:59:00,
2013-03-17 13:04:00,29.8,0.7,30.06,North,357,6.0,17.0,28,0.00,,,0.00,meteohub,2013-03-17 17:04:00,
2013-03-17 13:09:00,30.6,1.4,30.06,NW,322,8.0,20.0,28,0.00,,,0.00,meteohub,2013-03-17 17:09:00,
2013-03-17 13:14:00,30.9,1.6,30.06,North,353,11.0,20.0,28,0.00,,,0.00,meteohub,2013-03-17 17:14:00,
2013-03-17 13:19:00,32.0,2.5,30.06,NNW,334,4.0,20.0,28,0.00,,,0.00,meteohub,2013-03-17 17:19:00,
2013-03-17 13:24:00,32.0,2.5,30.06,NNW,327,16.0,20.0,28,0.00,,,0.00,meteohub,2013-03-17 17:24:00,
2013-03-17 13:29:00,30.6,-1.1,30.06,WNW,297,9.0,20.0,25,0.00,,,0.00,meteohub,2013-03-17 17:29:00,
2013-03-17 13:35:00,29.7,-1.8,30.06,NW,324,9.0,19.0,25,0.00,,,0.00,meteohub,2013-03-17 17:35:00,
2013-03-17 13:40:00,29.5,-2.0,30.06,NW,306,13.0,25.0,25,0.00,,,0.00,meteohub,2013-03-17 17:40:00,
2013-03-17 13:45:00,29.8,-1.7,30.06,NNW,336,17.0,25.0,25,0.00,,,0.00,meteohub,2013-03-17 17:45:00,
2013-03-17 13:49:00,30.4,-1.3,30.06,West,274,10.0,25.0,25,0.00,,,0.00,meteohub,2013-03-17 17:49:00,
2013-03-17 13:54:00,30.4,-1.3,30.06,WNW,287,9.0,25.0,25,0.00,,,0.00,meteohub,2013-03-17 17:54:00,
2013-03-17 14:00:00,29.7,-1.8,30.06,NNW,334,8.0,24.0,25,0.00,,,0.00,meteohub,2013-03-17 18:00:00,
2013-03-17 14:05:00,30.0,-1.5,30.06,West,273,8.0,24.0,25,0.00,,,0.00,meteohub,2013-03-17 18:05:00,
2013-03-17 14:10:00,30.0,-1.5,30.09,WNW,299,14.0,24.0,25,0.00,,,0.00,meteohub,2013-03-17 18:10:00,
2013-03-17 14:15:00,29.5,-2.0,30.09,NNW,329,11.0,24.0,25,0.00,,,0.00,meteohub,2013-03-17 18:15:00,
2013-03-17 14:20:00,28.9,-2.6,30.09,NNW,346,13.0,20.0,25,0.00,,,0.00,meteohub,2013-03-17 18:20:00,
2013-03-17 14:28:00,27.9,-2.6,30.09,NNW,329,14.0,20.0,26,0.00,,,0.00,meteohub,2013-03-17 18:28:00,
2013-03-17 14:33:00,28.6,-2.7,30.09,NW,319,3.0,20.0,25,0.00,,,0.00,meteohub,2013-03-17 18:33:00,
2013-03-17 14:38:00,29.3,0.1,30.09,WNW,285,9.0,20.0,28,0.00,,,0.00,meteohub,2013-03-17 18:38:00,
2013-03-17 14:43:00,28.6,-2.7,30.09,NNW,331,6.0,17.0,25,0.00,,,0.00,meteohub,2013-03-17 18:43:00,
2013-03-17 14:48:00,27.7,-2.7,30.09,NW,326,11.0,15.0,26,0.00,,,0.00,meteohub,2013-03-17 18:48:00,
2013-03-17 14:53:00,27.1,-3.3,30.09,NW,319,5.0,22.0,26,0.00,,,0.00,meteohub,2013-03-17 18:53:00,
2013-03-17 14:58:00,26.6,-3.6,30.09,West,281,4.0,24.0,26,0.00,,,0.00,meteohub,2013-03-17 18:58:00,
2013-03-17 15:03:00,26.8,-3.5,30.09,NNW,342,6.0,24.0,26,0.00,,,0.00,meteohub,2013-03-17 19:03:00,
2013-03-17 15:09:00,26.2,-4.0,30.09,NNW,343,13.0,24.0,26,0.00,,,0.00,meteohub,2013-03-17 19:09:00,
2013-03-17 15:14:00,25.9,-4.4,30.09,NW,321,15.0,19.0,26,0.00,,,0.00,meteohub,2013-03-17 19:14:00,
2013-03-17 15:19:00,27.0,-3.5,30.09,NNW,335,8.0,19.0,26,0.00,,,0.00,meteohub,2013-03-17 19:19:00,
2013-03-17 15:24:00,27.0,-3.5,30.09,NNW,332,7.0,19.0,26,0.00,,,0.00,meteohub,2013-03-17 19:24:00,
2013-03-17 15:29:00,27.0,-3.5,30.09,NW,319,11.0,17.0,26,0.00,,,0.00,meteohub,2013-03-17 19:29:00,
2013-03-17 15:34:00,27.1,-3.3,30.09,NNW,327,13.0,17.0,26,0.00,,,0.00,meteohub,2013-03-17 19:34:00,
2013-03-17 15:39:00,27.1,-3.3,30.09,NW,313,10.0,17.0,26,0.00,,,0.00,meteohub,2013-03-17 19:39:00,
2013-03-17 15:44:00,27.5,-1.3,30.09,SW,229,5.0,17.0,28,0.00,,,0.00,meteohub,2013-03-17 19:44:00,
2013-03-17 15:49:00,27.1,-3.3,30.09,NW,322,8.0,15.0,26,0.00,,,0.00,meteohub,2013-03-17 19:49:00,
2013-03-17 15:54:00,27.5,-1.3,30.09,NNW,345,8.0,18.0,28,0.00,,,0.00,meteohub,2013-03-17 19:54:00,
2013-03-17 15:59:00,27.7,-1.1,30.09,WNW,297,6.0,18.0,28,0.00,,,0.00,meteohub,2013-03-17 19:59:00,
2013-03-17 16:04:00,27.7,-1.1,30.09,NW,323,15.0,18.0,28,0.00,,,0.00,meteohub,2013-03-17 20:04:00,
2013-03-17 16:09:00,27.7,-1.1,30.09,NNW,339,6.0,15.0,28,0.00,,,0.00,meteohub,2013-03-17 20:09:00,
2013-03-17 16:14:00,27.9,-1.1,30.09,SSE,150,3.0,15.0,28,0.00,,,0.00,meteohub,2013-03-17 20:14:00,
2013-03-17 16:19:00,28.0,-0.9,30.09,NW,309,6.0,15.0,28,0.00,,,0.00,meteohub,2013-03-17 20:19:00,
2013-03-17 16:24:00,27.7,-1.1,30.09,North,357,6.0,13.0,28,0.00,,,0.00,meteohub,2013-03-17 20:24:00,
2013-03-17 16:29:00,27.7,-2.7,30.09,SW,223,3.0,12.0,26,0.00,,,0.00,meteohub,2013-03-17 20:29:00,
2013-03-17 16:34:00,27.7,-1.1,30.09,South,184,4.0,12.0,28,0.00,,,0.00,meteohub,2013-03-17 20:34:00,
2013-03-17 16:39:00,27.7,-1.1,30.09,NW,316,4.0,13.0,28,0.00,,,0.00,meteohub,2013-03-17 20:39:00,
2013-03-17 16:44:00,27.1,-1.7,30.09,NNW,328,8.0,16.0,28,0.00,,,0.00,meteohub,2013-03-17 20:44:00,
2013-03-17 16:49:00,27.3,-1.5,30.09,NNW,328,12.0,16.0,28,0.00,,,0.00,meteohub,2013-03-17 20:49:00,
2013-03-17 16:54:00,27.0,-1.8,30.12,NW,319,6.0,16.0,28,0.00,,,0.00,meteohub,2013-03-17 20:54:00,
2013-03-17 16:59:00,26.6,-1.3,30.12,NNW,340,6.0,15.0,29,0.00,,,0.00,meteohub,2013-03-17 20:59:00,
2013-03-17 17:04:00,26.4,-1.5,30.12,NNW,345,15.0,15.0,29,0.00,,,0.00,meteohub,2013-03-17 21:04:00,
2013-03-17 17:09:00,26.4,-1.5,30.12,WNW,296,6.0,16.0,29,0.00,,,0.00,meteohub,2013-03-17 21:09:00,
2013-03-17 17:14:00,26.6,-1.3,30.12,WNW,303,5.0,16.0,29,0.00,,,0.00,meteohub,2013-03-17 21:14:00,
2013-03-17 17:19:00,26.6,-1.3,30.12,WNW,302,2.0,16.0,29,0.00,,,0.00,meteohub,2013-03-17 21:19:00,
2013-03-17 17:24:00,26.4,-1.5,30.12,NNW,332,4.0,17.0,29,0.00,,,0.00,meteohub,2013-03-17 21:24:00,
2013-03-17 17:29:00,26.2,-1.7,30.12,NW,307,11.0,17.0,29,0.00,,,0.00,meteohub,2013-03-17 21:29:00,
2013-03-17 17:34:00,26.1,-1.8,30.12,NW,310,8.0,17.0,29,0.00,,,0.00,meteohub,2013-03-17 21:34:00,
2013-03-17 17:39:00,26.1,-1.8,30.12,NW,319,13.0,13.0,29,0.00,,,0.00,meteohub,2013-03-17 21:39:00,
2013-03-17 17:44:00,25.7,-2.2,30.12,NW,319,12.0,16.0,29,0.00,,,0.00,meteohub,2013-03-17 21:44:00,
2013-03-17 17:49:00,25.5,-2.4,30.12,NNW,339,15.0,16.0,29,0.00,,,0.00,meteohub,2013-03-17 21:49:00,
2013-03-17 17:54:00,25.5,-2.4,30.12,WNW,302,11.0,17.0,29,0.00,,,0.00,meteohub,2013-03-17 21:54:00,
2013-03-17 17:59:00,25.3,-2.6,30.12,NNW,336,8.0,17.0,29,0.00,,,0.00,meteohub,2013-03-17 21:59:00,
2013-03-17 18:04:00,25.2,-2.6,30.12,NNW,348,0.0,17.0,29,0.00,,,0.00,meteohub,2013-03-17 22:04:00,
2013-03-17 18:09:00,25.0,-2.7,30.14,WNW,300,6.0,17.0,29,0.00,,,0.00,meteohub,2013-03-17 22:09:00,
2013-03-17 18:14:00,24.8,-2.9,30.14,WNW,284,8.0,17.0,29,0.00,,,0.00,meteohub,2013-03-17 22:14:00,
2013-03-17 18:19:00,24.6,-4.5,30.14,NW,326,3.0,17.0,27,0.00,,,0.00,meteohub,2013-03-17 22:19:00,
2013-03-17 18:24:00,24.4,-4.7,30.14,NNW,335,3.0,17.0,27,0.00,,,0.00,meteohub,2013-03-17 22:24:00,
2013-03-17 18:29:00,24.3,-4.9,30.14,NNW,338,12.0,17.0,27,0.00,,,0.00,meteohub,2013-03-17 22:29:00,
2013-03-17 18:34:00,23.9,-5.3,30.14,NW,326,3.0,15.0,27,0.00,,,0.00,meteohub,2013-03-17 22:34:00,
2013-03-17 18:39:00,23.7,-5.4,30.14,NNW,342,8.0,15.0,27,0.00,,,0.00,meteohub,2013-03-17 22:39:00,
2013-03-17 18:44:00,23.5,-5.6,30.14,NW,316,12.0,17.0,27,0.00,,,0.00,meteohub,2013-03-17 22:44:00,
2013-03-17 18:49:00,23.4,-4.2,30.14,NW,308,8.0,17.0,29,0.00,,,0.00,meteohub,2013-03-17 22:49:00,
2013-03-17 18:54:00,23.2,-4.4,30.14,NW,315,3.0,17.0,29,0.00,,,0.00,meteohub,2013-03-17 22:54:00,
2013-03-17 18:59:00,23.0,-3.8,30.14,NNW,342,3.0,15.0,30,0.00,,,0.00,meteohub,2013-03-17 22:59:00,
2013-03-17 19:04:00,22.8,-4.0,30.14,NW,310,5.0,15.0,30,0.00,,,0.00,meteohub,2013-03-17 23:04:00,
2013-03-17 19:09:00,22.8,-4.0,30.17,WNW,287,5.0,13.0,30,0.00,,,0.00,meteohub,2013-03-17 23:09:00,
2013-03-17 19:14:00,22.6,-4.2,30.17,NW,323,14.0,14.0,30,0.00,,,0.00,meteohub,2013-03-17 23:14:00,
2013-03-17 19:19:00,22.5,-4.4,30.17,NNW,332,5.0,15.0,30,0.00,,,0.00,meteohub,2013-03-17 23:19:00,
2013-03-17 19:24:00,22.3,-4.5,30.17,NNW,345,5.0,15.0,30,0.00,,,0.00,meteohub,2013-03-17 23:24:00,
2013-03-17 19:29:00,22.1,-4.5,30.17,NNW,330,3.0,14.0,30,0.00,,,0.00,meteohub,2013-03-17 23:29:00,
2013-03-17 19:34:00,21.9,-4.7,30.17,WNW,295,4.0,11.0,30,0.00,,,0.00,meteohub,2013-03-17 23:34:00,
2013-03-17 19:39:00,21.7,-4.9,30.17,NNW,340,4.0,11.0,30,0.00,,,0.00,meteohub,2013-03-17 23:39:00,
2013-03-17 19:44:00,21.6,-5.1,30.17,NNW,345,6.0,13.0,30,0.00,,,0.00,meteohub,2013-03-17 23:44:00,
2013-03-17 19:49:00,21.6,-5.1,30.17,NNW,333,8.0,13.0,30,0.00,,,0.00,meteohub,2013-03-17 23:49:00,
2013-03-17 19:54:00,21.4,-5.3,30.20,NNW,343,6.0,13.0,30,0.00,,,0.00,meteohub,2013-03-17 23:54:00,
2013-03-17 19:59:00,21.2,-5.4,30.20,North,353,6.0,12.0,30,0.00,,,0.00,meteohub,2013-03-17 23:59:00,
2013-03-17 20:04:00,21.2,-5.4,30.20,WNW,289,6.0,12.0,30,0.00,,,0.00,meteohub,2013-03-18 00:04:00,
2013-03-17 20:09:00,21.0,-5.6,30.20,NW,320,5.0,11.0,30,0.00,,,0.00,meteohub,2013-03-18 00:09:00,
2013-03-17 20:14:00,20.7,-5.8,30.20,NW,319,9.0,11.0,30,0.00,,,0.00,meteohub,2013-03-18 00:14:00,
2013-03-17 20:19:00,20.7,-5.8,30.20,North,0,7.0,11.0,30,0.00,,,0.00,meteohub,2013-03-18 00:19:00,
2013-03-17 20:24:00,20.5,-6.0,30.20,NW,322,4.0,11.0,30,0.00,,,0.00,meteohub,2013-03-18 00:24:00,
2013-03-17 20:29:00,20.3,-6.2,30.20,NW,325,11.0,11.0,30,0.00,,,0.00,meteohub,2013-03-18 00:29:00,
2013-03-17 20:34:00,20.3,-6.2,30.20,NW,320,5.0,11.0,30,0.00,,,0.00,meteohub,2013-03-18 00:34:00,
2013-03-17 20:39:00,20.1,-6.3,30.23,WNW,285,0.0,11.0,30,0.00,,,0.00,meteohub,2013-03-18 00:39:00,
2013-03-17 20:44:00,19.9,-6.5,30.23,NNW,327,4.0,11.0,30,0.00,,,0.00,meteohub,2013-03-18 00:44:00,
2013-03-17 20:49:00,19.9,-6.5,30.23,NNW,328,6.0,11.0,30,0.00,,,0.00,meteohub,2013-03-18 00:49:00,
2013-03-17 20:54:00,19.8,-6.7,30.23,WNW,293,0.0,11.0,30,0.00,,,0.00,meteohub,2013-03-18 00:54:00,
2013-03-17 20:59:00,19.6,-6.9,30.23,NW,310,0.0,11.0,30,0.00,,,0.00,meteohub,2013-03-18 00:59:00,
2013-03-17 21:05:00,19.4,-7.1,30.23,NW,326,8.0,13.0,30,0.00,,,0.00,meteohub,2013-03-18 01:05:00,
2013-03-17 21:10:00,19.4,-7.1,30.23,NW,324,3.0,13.0,30,0.00,,,0.00,meteohub,2013-03-18 01:10:00,
2013-03-17 21:15:00,19.2,-7.1,30.23,NNW,335,8.0,13.0,30,0.00,,,0.00,meteohub,2013-03-18 01:15:00,
2013-03-17 21:20:00,19.0,-7.2,30.23,North,357,4.0,11.0,30,0.00,,,0.00,meteohub,2013-03-18 01:20:00,
2013-03-17 21:25:00,18.9,-8.9,30.26,NNW,327,5.0,11.0,28,0.00,,,0.00,meteohub,2013-03-18 01:25:00,
2013-03-17 21:30:00,18.5,-9.2,30.26,North,357,4.0,11.0,28,0.00,,,0.00,meteohub,2013-03-18 01:30:00,
2013-03-17 21:35:00,18.5,-9.2,30.26,North,353,0.0,11.0,28,0.00,,,0.00,meteohub,2013-03-18 01:35:00,
2013-03-17 21:40:00,18.5,-9.2,30.26,North,353,0.0,8.0,28,0.00,,,0.00,meteohub,2013-03-18 01:40:00,
2013-03-17 21:45:00,18.1,-9.6,30.26,North,7,5.0,8.0,28,0.00,,,0.00,meteohub,2013-03-18 01:45:00,
2013-03-17 21:50:00,18.1,-9.6,30.26,North,357,0.0,8.0,28,0.00,,,0.00,meteohub,2013-03-18 01:50:00,
2013-03-17 21:55:00,18.0,-9.6,30.26,WNW,291,0.0,8.0,28,0.00,,,0.00,meteohub,2013-03-18 01:55:00,
2013-03-17 22:00:00,17.8,-9.8,30.26,NNW,341,2.0,8.0,28,0.00,,,0.00,meteohub,2013-03-18 02:00:00,
2013-03-17 22:05:00,17.6,-9.9,30.26,NNW,332,0.0,7.0,28,0.00,,,0.00,meteohub,2013-03-18 02:05:00,
2013-03-17 22:10:00,17.6,-9.9,30.26,NNW,341,4.0,6.0,28,0.00,,,0.00,meteohub,2013-03-18 02:10:00,
2013-03-17 22:15:00,17.4,-10.1,30.26,ESE,116,4.0,8.0,28,0.00,,,0.00,meteohub,2013-03-18 02:15:00,
2013-03-17 22:20:00,17.4,-8.1,30.26,WNW,293,0.0,8.0,31,0.00,,,0.00,meteohub,2013-03-18 02:20:00,
2013-03-17 22:25:00,17.1,-10.5,30.29,NW,315,0.0,8.0,28,0.00,,,0.00,meteohub,2013-03-18 02:25:00,
2013-03-17 22:30:00,17.1,-10.5,30.29,NNW,328,0.0,6.0,28,0.00,,,0.00,meteohub,2013-03-18 02:30:00,
2013-03-17 22:35:00,16.9,-8.5,30.29,NNW,328,0.0,6.0,31,0.00,,,0.00,meteohub,2013-03-18 02:35:00,
2013-03-17 22:40:00,16.9,-10.7,30.29,NW,319,0.0,6.0,28,0.00,,,0.00,meteohub,2013-03-18 02:40:00,
2013-03-17 22:45:00,16.7,-10.8,30.29,WSW,254,0.0,6.0,28,0.00,,,0.00,meteohub,2013-03-18 02:45:00,
2013-03-17 22:50:00,16.7,-10.8,30.29,WNW,282,0.0,6.0,28,0.00,,,0.00,meteohub,2013-03-18 02:50:00,
2013-03-17 22:55:00,16.5,-10.8,30.29,WNW,283,0.0,6.0,28,0.00,,,0.00,meteohub,2013-03-18 02:55:00,
2013-03-17 23:00:00,16.3,-9.0,30.29,NNE,23,0.0,4.0,31,0.00,,,0.00,meteohub,2013-03-18 03:00:00,
2013-03-17 23:05:00,16.2,-9.2,30.29,WNW,299,0.0,4.0,31,0.00,,,0.00,meteohub,2013-03-18 03:05:00,
2013-03-17 23:10:00,16.2,-9.2,30.29,WNW,294,0.0,4.0,31,0.00,,,0.00,meteohub,2013-03-18 03:10:00,
2013-03-17 23:15:00,16.0,-9.4,30.29,WNW,293,0.0,4.0,31,0.00,,,0.00,meteohub,2013-03-18 03:15:00,
2013-03-17 23:20:00,16.0,-9.4,30.29,WNW,293,0.0,6.0,31,0.00,,,0.00,meteohub,2013-03-18 03:20:00,
2013-03-17 23:25:00,16.0,-9.4,30.29,WNW,293,0.0,6.0,31,0.00,,,0.00,meteohub,2013-03-18 03:25:00,
2013-03-17 23:30:00,15.8,-9.6,30.29,WNW,293,0.0,6.0,31,0.00,,,0.00,meteohub,2013-03-18 03:30:00,
2013-03-17 23:35:00,15.6,-9.6,30.29,NW,307,6.0,0.0,31,0.00,,,0.00,meteohub,2013-03-18 03:35:00,
2013-03-17 23:40:00,15.6,-9.6,30.29,WNW,302,0.0,8.0,31,0.00,,,0.00,meteohub,2013-03-18 03:40:00,
2013-03-17 23:45:00,15.6,-9.6,30.29,NW,309,3.0,8.0,31,0.00,,,0.00,meteohub,2013-03-18 03:45:00,
2013-03-17 23:50:00,15.4,-9.8,30.29,North,353,4.0,8.0,31,0.00,,,0.00,meteohub,2013-03-18 03:50:00,
2013-03-17 23:55:00,15.4,-9.8,30.29,NW,321,0.0,5.0,31,0.00,,,0.00,meteohub,2013-03-18 03:55:00,